Flag for Germany Weather past 2 weeks in Wismar, Mecklenburg-Western Pomerania, Germany

Now
65 °F

Overcast.


Feels Like: 65 °F
Forecast: 46 / 62 °F
Wind: 8 mph from Southwest

Location: Schwerin

Current Time: Jun 3, 2015 at 5:41:24 AM

Latest Report: Jun 3, 2015 at 4:00 AM


Visibility: 34 mi

Pressure: 29.83 "Hg

Humidity: 66%

Dew point: 53 °F

Location of WismarLocation

Historic Weather in Wismar — Graph

°F

Wismar temperature yesterday

Maximum temperature yesterday: 67 °F (at 8:00 PM)
Minimum temperature yesterday: 49 °F (at 12:00 AM)
Average temperature yesterday: 59 °F

Past Weeks' High & Low Weather Summary

 TemperatureHumidityPressure
High67 °F (Jun 2, 8:00 PM)99% (May 29, 6:00 AM)30.30 "Hg (May 29, 6:00 AM)
Low40 °F (May 21, 6:00 AM)36% (May 24, 6:00 PM)29.58 "Hg (May 19, 5:00 AM)
Average53 °F71%29.96 "Hg
* Reported May 19 4:00 AM — Jun 3 4:00 AM, Wismar, Weather by CustomWeather, © 2015

Note: Actual official high and low records may vary slightly from our data, if they occured in-between our weather recording intervals... More about our weather records

Advertising

Wismar weather history for previous 24 hours

 ConditionsComfort  
Time TempWeatherWind HumidityBarometerVisibility
4:00 AM
Wed, Jun 3
65 °FOvercast.8 mph66%29.83 "Hg34 mi
3:00 AM64 °FOvercast.6 mph69%29.83 "Hg28 mi
2:00 AM65 °FOvercast.8 mph66%29.83 "Hg22 mi
1:00 AM66 °FOvercast.9 mph63%29.82 "Hg28 mi
12:00 AM66 °FOvercast.10 mph63%29.81 "Hg22 mi
10:00 PM
Tue, Jun 2
66 °FOvercast.9 mph65%29.81 "Hg17 mi
9:00 PM67 °FOvercast.10 mph63%29.80 "Hg22 mi
8:00 PM67 °FOvercast.7 mph60%29.79 "Hg25 mi
7:00 PM66 °FOvercast.8 mph63%29.79 "Hg28 mi
6:00 PM66 °FOvercast.9 mph61%29.79 "Hg28 mi
4:00 PM65 °FOvercast.8 mph56%29.78 "Hg31 mi
3:00 PM65 °FOvercast.7 mph57%29.77 "Hg28 mi
2:00 PM64 °FOvercast.8 mph58%29.77 "Hg22 mi
1:00 PM64 °FOvercast.10 mph55%29.77 "Hg18 mi
12:00 PM63 °FLight rain. Overcast.10 mph55%29.78 "Hg17 mi
11:00 AM62 °FOvercast.9 mph58%29.79 "Hg16 mi
10:00 AM59 °FScattered clouds.7 mph67%29.81 "Hg12 mi
9:00 AM55 °FOvercast.7 mph74%29.82 "Hg11 mi
8:00 AM52 °FPartly sunny.3 mph84%29.84 "Hg7 mi
7:00 AM50 °FOvercast.3 mph89%29.85 "Hg5 mi
Weather by CustomWeather, © 2015

See weather overviewHow to use our weather pages